Weather Service Report


885 
ASUS44 KLZK 180905
RWRLZK

WEATHER ROUNDUP FOR ARKANSAS
NATIONAL WEATHER SERVICE LITTLE ROCK AR
300 AM CST THU DEC 18 2014

NOTE: "FAIR" INDICATES FEW OR NO CLOUDS BELOW 12,000 FEET WITH NO
SIGNIFICANT WEATHER AND/OR OBSTRUCTIONS TO VISIBILITY.

ARZ001-003-010-029-181000-
NORTHWEST ARKANSAS
  
CITY           SKY/WX    TMP DP  RH WIND       PRES   REMARKS
FAYETTEVILLE   CLOUDY    37  35  92 CALM      30.14F                  
FORT SMITH     CLOUDY    37  34  89 E9        30.19F                  
HARRISON       CLOUDY    33  32  96 SE10      30.16F WCI  25          
BENTONVILLE    CLOUDY    37  34  87 SE3       30.15R                  
ROGERS         CLOUDY    36  34  92 E5        30.15S                  
SILOAM SPGS    CLOUDY    36  30  80 SE3       30.16S                  
HIGHFILL       CLOUDY    37 N/A N/A SE5       30.14S                  
$$

ARZ004-005-016-181000-
NORTH CENTRAL ARKANSAS
  
CITY           SKY/WX    TMP DP  RH WIND       PRES   REMARKS
BATESVILLE     CLOUDY    36  32  87 NE3       30.26S                  
FLIPPIN        CLOUDY    34  28  80 E5        30.20F WCI  30          
MTN HOME       CLOUDY    33  33 100 SE6       30.20F WCI  28          
$$

ARZ040-041-181000-
WEST CENTRAL ARKANSAS
  
CITY           SKY/WX    TMP DP  RH WIND       PRES   REMARKS
MENA           CLOUDY    37  36  93 CALM      30.16F                  
MOUNT IDA      MIX PCPN  37  35  92 CALM      30.16F                  
$$

ARZ009-017-025-026-028-181000-
NORTHEAST ARKANSAS
  
CITY           SKY/WX    TMP DP  RH WIND       PRES   REMARKS
CORNING        CLOUDY    36  36 100 E5        30.27S                  
JONESBORO      CLOUDY    36  35  96 E6        30.27R                  
NEWPORT        LGT RAIN  37  35  92 E6        30.28S FOG              
WALNUT RIDGE   CLOUDY    36  32  87 E5        30.28R                  
BLYTHEVILLE    LGT RAIN  37  35  92 SE6       30.27R                  
$$

ARZ022-023-033-042-044-181000-
CENTRAL ARKANSAS
  
CITY           SKY/WX    TMP DP  RH WIND       PRES   REMARKS
LITTLE ROCK    CLOUDY    38  34  85 E6        30.23S                  
N LITTLE ROCK    N/A     36  36 100 E9        30.23F                  
JACKSONVILLE   LGT RAIN  36  36 100 E7        30.23S                  
SEARCY         LGT RAIN  37  35  92 NE7       30.25F                  
HOT SPRINGS    LGT RAIN  37  35  92 E6        30.20F FOG              
RUSSELLVILLE   CLOUDY    36  33  89 VRB3      30.22S                  
CLINTON        LGT RAIN  36  36 100 CALM      30.25F                  
$$

ARZ036-181000-
EAST ARKANSAS
  
CITY           SKY/WX    TMP DP  RH WIND       PRES   REMARKS
WEST MEMPHIS   LGT RAIN  37  36  96 SE6       30.24F                  
$$

ARZ050-053-066-070-073-181000-
SOUTHWEST ARKANSAS
  
CITY           SKY/WX    TMP DP  RH WIND       PRES   REMARKS
ARKADELPHIA    LGT RAIN  38  38 100 SE6       30.22F FOG              
CAMDEN         LGT RAIN  39  36  87 MISG      30.22F                  
TEXARKANA      LGT RAIN  38  37  97 NE7       30.21S FOG              
EL DORADO      LGT RAIN  40  38  93 E10       30.19F                  
DE QUEEN       CLOUDY    38  38 100 E5        30.17F                  
$$

ARZ056-057-069-181000-
SOUTHEAST ARKANSAS
  
CITY           SKY/WX    TMP DP  RH WIND       PRES   REMARKS
PINE BLUFF     CLOUDY    39  36  89 E7        30.22F                  
STUTTGART      CLOUDY    37  34  87 E10       30.22F                  
MONTICELLO     LGT RAIN  40  38  93 E8        30.22F                  

$$



Return to Home page


Western Regional Climate Center, wrcc@dri.edu